Location: Brno
(49.2000°N, 16.6330°E)
Time: 09:16:27
(UTC+02:00)

BREEZE M DEB (TANK) - Visible Passes

Search period start: 23 May 2015 00:00
Search period end: 02 June 2015 00:00
Orbit: 284 x 12124 km, 49.5° (Epoch: 22 May)

Date Brightness Start Highest point End Pass type
(mag) Time Alt. Az. Time Alt. Az. Time Alt. Az.
23 May 8.4 03:16:29 10° NW 04:21:27 21° W 04:53:25 10° WSW visible
23 May 8.3 22:11:38 10° WNW 23:17:17 76° SW 00:38:03 12° SSE visible
24 May 8.3 02:34:04 10° NW 03:44:13 26° W 04:24:34 10° SW visible
24 May 8.4 21:33:24 10° WNW 22:33:00 81° SSW 00:00:28 11° SE visible
25 May 8.3 01:52:53 10° NW 03:06:15 32° W 03:53:19 10° SW visible
25 May 8.5 20:55:21 10° WNW 21:48:26 85° SSW 23:22:34 10° SE visible
26 May 8.3 01:12:31 10° NW 02:27:31 39° WSW 03:17:04 13° SSW visible
26 May 8.6 20:17:28 10° W 21:04:01 88° SSW 22:43:14 10° SE visible
27 May 8.3 00:32:43 10° NW 01:47:57 45° WSW 02:40:09 17° SSW visible
27 May 8.6 19:39:43 10° W 20:20:05 90° S 22:03:04 10° ESE visible
27 May 8.2 23:53:19 10° WNW 01:07:31 51° WSW 02:03:25 19° SSW visible
28 May 8.6 19:02:07 10° W 19:36:53 89° N 21:21:58 10° ESE visible
28 May 8.3 23:14:16 10° WNW 00:26:11 58° WSW 01:26:50 20° S visible
29 May 8.3 22:35:28 10° WNW 23:43:56 64° SW 00:50:23 21° S visible
30 May 8.7 03:05:40 10° NW 04:00:32 15° W 04:20:20 10° W visible
30 May 8.3 21:56:53 10° WNW 23:00:51 70° SW 00:14:02 20° SSE visible
31 May 8.6 02:20:58 10° NW 03:23:32 20° W 03:56:15 10° WSW visible
31 May 8.4 21:18:30 10° WNW 22:17:07 75° SW 23:37:48 18° SSE visible
01 Jun 8.6 01:38:38 10° NW 02:45:43 26° W 03:27:59 10° SW visible
01 Jun 8.4 20:40:16 10° WNW 21:32:59 80° SSW 23:01:38 15° SSE visible
